GFSNGP_prec_precacc_141.txt.gz
Total_Precipitation_Accumulation
0.43 0.17 0.67 0.68 0.52 0.76 1.52 0.99 1.09 0.39 0.20 0.04 0.04 0.05 0.02 0.01 0.03 0.06 0.04 0.01 0.01 0.00 0.01 0.00 0.01 0.02 0.02 0.04 0.08 0.25 0.52 0.47 0.42 0.95 0.67 0.79 0.95 0.92 1.11 0.89 1.15 1.03 0.94 0.88
0.83 0.36 0.36 0.62 0.61 0.81 0.83 0.77 0.84 0.30 0.23 0.04 0.01 0.01 0.02 0.11 0.15 0.08 0.05 0.02 0.00 0.00 0.00 0.01 0.01 0.00 0.00 0.03 0.06 0.07 0.09 0.10 0.20 0.50 0.41 0.44 0.57 0.59 0.80 0.89 0.99 1.17 1.24 1.03
0.71 0.48 0.70 1.12 0.77 0.59 0.38 0.37 0.49 0.47 0.13 0.07 0.11 0.06 0.17 0.16 0.09 0.10 0.06 0.01 0.00 0.00 0.00 0.00 0.00 0.00 0.01 0.03 0.02 0.03 0.06 0.06 0.04 0.15 0.26 0.14 0.32 0.36 0.61 0.87 0.78 0.97 1.26 1.35
0.75 0.73 1.02 0.63 0.51 0.35 0.36 0.36 0.32 0.16 0.04 0.07 0.12 0.11 0.26 0.06 0.07 0.05 0.02 0.00 0.00 0.00 0.00 0.00 0.00 0.00 0.01 0.12 0.06 0.33 0.14 0.29 0.37 0.34 0.30 0.25 0.27 0.42 0.40 0.46 0.53 0.59 0.81 1.04
0.46 0.38 0.25 0.02 0.05 0.17 0.23 0.37 0.20 0.06 0.02 0.04 0.03 0.15 0.30 0.06 0.04 0.03 0.01 0.00 0.00 0.00 0.00 0.00 0.00 0.00 0.01 0.00 0.01 0.06 0.21 0.40 0.28 0.42 0.30 0.33 0.60 0.68 0.92 1.15 1.01 0.73 0.54 0.43
0.40 0.36 0.09 0.00 0.00 0.00 0.03 0.21 0.30 0.17 0.09 0.06 0.04 0.15 0.34 0.28 0.18 0.08 0.00 0.00 0.00 0.00 0.00 0.01 0.01 0.03 0.02 0.04 0.05 0.08 0.16 0.29 0.34 0.46 0.70 0.71 0.87 0.74 0.55 0.57 0.62 0.50 0.32 0.19
0.35 0.37 0.03 0.00 0.00 0.00 0.04 0.12 0.11 0.16 0.16 0.07 0.05 0.09 0.38 0.51 0.38 0.19 0.09 0.06 0.06 0.06 0.07 0.10 0.18 0.19 0.16 0.29 0.38 0.45 0.58 0.88 0.67 0.67 0.84 0.73 0.59 0.50 0.32 0.18 0.13 0.09 0.05 0.02
0.22 0.27 0.04 0.00 0.00 0.01 0.01 0.00 0.00 0.05 0.14 0.16 0.14 0.06 0.09 0.23 0.25 0.26 0.26 0.29 0.32 0.23 0.34 0.46 0.74 0.62 0.51 0.60 0.67 0.67 0.50 0.43 0.43 0.32 0.24 0.18 0.08 0.04 0.01 0.00 0.00 0.00 0.00 0.00
0.08 0.05 0.01 0.01 0.00 0.00 0.00 0.00 0.00 0.01 0.11 0.17 0.21 0.12 0.05 0.06 0.07 0.04 0.04 0.13 0.18 0.25 0.41 0.42 0.51 0.38 0.39 0.25 0.25 0.25 0.14 0.10 0.08 0.05 0.01 0.00 0.00 0.00 0.00 0.00 0.00 0.00 0.00 0.00
0.00 0.01 0.04 0.16 0.17 0.08 0.04 0.01 0.00 0.00 0.00 0.00 0.06 0.11 0.01 0.01 0.01 0.02 0.02 0.02 0.01 0.01 0.01 0.04 0.03 0.03 0.03 0.02 0.03 0.03 0.01 0.00 0.00 0.00 0.00 0.00 0.00 0.00 0.00 0.00 0.00 0.00 0.00 0.00
0.00 0.00 0.00 0.00 0.02 0.05 0.07 0.07 0.05 0.03 0.01 0.00 0.01 0.02 0.02 0.03 0.01 0.00 0.00 0.00 0.00 0.00 0.00 0.01 0.00 0.00 0.00 0.00 0.00 0.00 0.00 0.00 0.00 0.00 0.00 0.00 0.00 0.00 0.00 0.01 0.01 0.01 0.01 0.01
0.01 0.01 0.00 0.00 0.00 0.00 0.00 0.01 0.03 0.03 0.01 0.01 0.01 0.05 0.05 0.03 0.01 0.01 0.00 0.00 0.01 0.01 0.01 0.02 0.02 0.01 0.00 0.00 0.00 0.00 0.00 0.00 0.00 0.00 0.00 0.00 0.00 0.01 0.03 0.07 0.08 0.08 0.07 0.07
0.00 0.00 0.00 0.00 0.00 0.00 0.00 0.00 0.00 0.01 0.02 0.01 0.00 0.03 0.05 0.03 0.03 0.02 0.00 0.01 0.02 0.01 0.00 0.01 0.04 0.08 0.09 0.07 0.05 0.06 0.08 0.10 0.10 0.11 0.09 0.07 0.05 0.04 0.02 0.07 0.11 0.12 0.13 0.16
0.00 0.00 0.01 0.00 0.00 0.00 0.01 0.01 0.01 0.02 0.02 0.01 0.01 0.02 0.04 0.06 0.15 0.11 0.08 0.08 0.05 0.01 0.00 0.00 0.00 0.00 0.01 0.02 0.04 0.05 0.07 0.11 0.12 0.16 0.20 0.24 0.27 0.25 0.23 0.19 0.15 0.16 0.24 0.24
0.00 0.00 0.00 0.00 0.00 0.00 0.01 0.02 0.03 0.04 0.03 0.01 0.02 0.02 0.04 0.08 0.19 0.34 0.29 0.21 0.19 0.19 0.14 0.08 0.04 0.02 0.01 0.00 0.00 0.00 0.00 0.00 0.00 0.00 0.01 0.04 0.03 0.07 0.12 0.18 0.21 0.23 0.26 0.37
0.00 0.00 0.00 0.01 0.00 0.00 0.01 0.04 0.07 0.09 0.04 0.02 0.01 0.01 0.01 0.01 0.02 0.05 0.05 0.06 0.08 0.09 0.06 0.04 0.04 0.04 0.03 0.03 0.01 0.00 0.01 0.03 0.03 0.01 0.02 0.03 0.03 0.03 0.03 0.05 0.07 0.12 0.19 0.25
0.00 0.01 0.01 0.01 0.00 0.00 0.00 0.03 0.07 0.16 0.12 0.04 0.02 0.01 0.01 0.01 0.00 0.00 0.02 0.02 0.01 0.02 0.01 0.00 0.00 0.01 0.00 0.00 0.00 0.00 0.00 0.02 0.05 0.01 0.02 0.02 0.03 0.03 0.03 0.07 0.08 0.08 0.10 0.30
0.00 0.00 0.00 0.00 0.01 0.01 0.02 0.03 0.04 0.07 0.15 0.21 0.18 0.09 0.05 0.04 0.06 0.09 0.09 0.08 0.07 0.05 0.02 0.01 0.02 0.01 0.00 0.00 0.00 0.00 0.00 0.00 0.01 0.01 0.02 0.03 0.06 0.08 0.14 0.16 0.14 0.13 0.11 0.28
0.01 0.03 0.02 0.03 0.07 0.10 0.10 0.09 0.10 0.10 0.10 0.11 0.16 0.21 0.18 0.13 0.11 0.11 0.13 0.13 0.11 0.09 0.07 0.05 0.09 0.06 0.01 0.02 0.04 0.01 0.01 0.00 0.01 0.02 0.02 0.08 0.15 0.14 0.15 0.18 0.18 0.18 0.19 0.22
0.19 0.16 0.11 0.13 0.19 0.24 0.24 0.27 0.27 0.27 0.25 0.21 0.18 0.17 0.16 0.12 0.09 0.09 0.09 0.10 0.10 0.08 0.08 0.07 0.09 0.04 0.02 0.04 0.08 0.02 0.01 0.01 0.03 0.05 0.13 0.19 0.19 0.21 0.23 0.29 0.28 0.24 0.23 0.22
0.23 0.27 0.27 0.29 0.40 0.34 0.28 0.23 0.15 0.10 0.06 0.04 0.05 0.05 0.03 0.02 0.01 0.01 0.02 0.03 0.04 0.05 0.07 0.07 0.08 0.07 0.09 0.14 0.16 0.06 0.06 0.07 0.13 0.19 0.27 0.34 0.35 0.32 0.27 0.24 0.27 0.29 0.29 0.30
0.08 0.10 0.15 0.19 0.22 0.19 0.11 0.11 0.11 0.11 0.07 0.04 0.03 0.03 0.04 0.03 0.02 0.01 0.02 0.02 0.02 0.07 0.04 0.06 0.09 0.14 0.18 0.27 0.23 0.19 0.22 0.30 0.33 0.35 0.35 0.34 0.34 0.30 0.27 0.26 0.26 0.24 0.28 0.28
0.13 0.06 0.04 0.03 0.02 0.04 0.07 0.09 0.11 0.15 0.14 0.11 0.07 0.05 0.04 0.04 0.04 0.04 0.05 0.04 0.04 0.06 0.06 0.07 0.11 0.15 0.17 0.18 0.15 0.21 0.23 0.27 0.28 0.26 0.24 0.25 0.23 0.22 0.20 0.18 0.19 0.21 0.20 0.18
0.21 0.09 0.03 0.01 0.00 0.00 0.00 0.00 0.00 0.02 0.05 0.06 0.06 0.06 0.06 0.07 0.05 0.04 0.03 0.03 0.03 0.02 0.02 0.06 0.10 0.12 0.13 0.13 0.17 0.26 0.26 0.27 0.26 0.23 0.20 0.21 0.18 0.17 0.18 0.16 0.16 0.13 0.12 0.13
0.12 0.06 0.04 0.02 0.02 0.02 0.04 0.03 0.03 0.03 0.02 0.02 0.01 0.01 0.01 0.01 0.00 0.00 0.01 0.02 0.02 0.01 0.00 0.01 0.01 0.01 0.02 0.04 0.08 0.11 0.12 0.12 0.13 0.14 0.12 0.11 0.09 0.08 0.08 0.08 0.09 0.09 0.12 0.09
0.09 0.08 0.06 0.05 0.04 0.03 0.04 0.06 0.06 0.10 0.07 0.04 0.04 0.05 0.03 0.01 0.00 0.00 0.01 0.03 0.03 0.05 0.05 0.06 0.04 0.02 0.01 0.01 0.01 0.01 0.01 0.03 0.07 0.08 0.08 0.08 0.07 0.08 0.07 0.06 0.06 0.07 0.10 0.11
0.01 0.01 0.01 0.01 0.01 0.01 0.00 0.00 0.01 0.01 0.01 0.01 0.02 0.03 0.02 0.01 0.01 0.01 0.02 0.02 0.03 0.05 0.10 0.13 0.12 0.09 0.06 0.05 0.04 0.02 0.02 0.01 0.03 0.06 0.07 0.07 0.07 0.06 0.06 0.05 0.06 0.07 0.08 0.12

GFSNGP_prec_precacc_144.txt.gz
Total_Precipitation_Accumulation
0.43 0.17 0.67 0.68 0.52 0.76 1.52 0.99 1.09 0.39 0.20 0.04 0.04 0.05 0.02 0.01 0.03 0.06 0.04 0.01 0.01 0.00 0.01 0.00 0.01 0.02 0.02 0.04 0.08 0.25 0.52 0.47 0.42 0.99 0.74 0.89 1.12 1.09 1.51 1.13 1.29 1.20 1.00 0.93
0.83 0.36 0.36 0.62 0.61 0.81 0.83 0.77 0.84 0.30 0.23 0.04 0.01 0.01 0.02 0.11 0.15 0.08 0.05 0.02 0.00 0.00 0.00 0.01 0.01 0.00 0.00 0.03 0.06 0.07 0.09 0.10 0.20 0.52 0.46 0.52 0.71 0.71 1.03 1.25 1.33 1.54 1.51 1.27
0.71 0.48 0.70 1.12 0.77 0.59 0.38 0.37 0.49 0.47 0.13 0.07 0.11 0.06 0.17 0.16 0.09 0.10 0.06 0.01 0.00 0.00 0.00 0.00 0.00 0.00 0.01 0.03 0.02 0.03 0.06 0.06 0.04 0.15 0.27 0.16 0.41 0.44 0.64 1.04 0.93 1.14 1.56 1.79
0.75 0.73 1.02 0.63 0.51 0.35 0.36 0.36 0.32 0.16 0.04 0.07 0.12 0.11 0.26 0.06 0.07 0.05 0.02 0.00 0.00 0.00 0.00 0.00 0.00 0.00 0.01 0.12 0.06 0.33 0.14 0.29 0.37 0.34 0.30 0.25 0.28 0.47 0.42 0.55 0.81 0.91 1.03 1.33
0.46 0.38 0.25 0.02 0.05 0.17 0.23 0.37 0.20 0.06 0.02 0.04 0.03 0.15 0.30 0.06 0.04 0.03 0.01 0.00 0.00 0.00 0.00 0.00 0.00 0.00 0.01 0.00 0.01 0.06 0.21 0.40 0.28 0.42 0.30 0.33 0.60 0.68 0.92 1.15 1.02 0.82 0.64 0.51
0.40 0.36 0.09 0.00 0.00 0.00 0.03 0.21 0.30 0.17 0.09 0.06 0.04 0.15 0.34 0.28 0.18 0.08 0.00 0.00 0.00 0.00 0.00 0.01 0.01 0.03 0.02 0.04 0.05 0.08 0.16 0.29 0.34 0.46 0.70 0.71 0.87 0.74 0.55 0.57 0.62 0.50 0.32 0.19
0.35 0.37 0.03 0.00 0.00 0.00 0.04 0.12 0.11 0.16 0.16 0.07 0.05 0.09 0.38 0.51 0.38 0.19 0.09 0.06 0.06 0.06 0.07 0.10 0.18 0.19 0.16 0.29 0.38 0.45 0.58 0.88 0.67 0.67 0.84 0.73 0.59 0.50 0.32 0.18 0.13 0.09 0.05 0.02
0.22 0.27 0.04 0.00 0.00 0.01 0.01 0.00 0.00 0.05 0.14 0.16 0.14 0.06 0.09 0.23 0.25 0.26 0.26 0.29 0.32 0.23 0.34 0.46 0.74 0.62 0.51 0.60 0.67 0.67 0.50 0.43 0.43 0.32 0.24 0.18 0.08 0.04 0.01 0.00 0.00 0.00 0.00 0.00
0.08 0.05 0.01 0.01 0.00 0.00 0.00 0.00 0.00 0.01 0.11 0.17 0.21 0.12 0.05 0.06 0.07 0.04 0.04 0.13 0.18 0.25 0.41 0.42 0.51 0.38 0.39 0.25 0.25 0.25 0.14 0.10 0.08 0.05 0.01 0.00 0.00 0.00 0.00 0.00 0.00 0.00 0.00 0.00
0.00 0.01 0.04 0.16 0.17 0.08 0.04 0.01 0.00 0.00 0.00 0.00 0.06 0.11 0.01 0.01 0.01 0.02 0.02 0.02 0.01 0.01 0.01 0.04 0.03 0.03 0.03 0.02 0.03 0.03 0.01 0.00 0.00 0.00 0.00 0.00 0.00 0.00 0.00 0.00 0.00 0.00 0.00 0.00
0.00 0.00 0.00 0.00 0.02 0.05 0.07 0.07 0.05 0.03 0.01 0.00 0.01 0.02 0.02 0.03 0.01 0.00 0.00 0.00 0.00 0.00 0.00 0.01 0.00 0.00 0.00 0.00 0.00 0.00 0.00 0.00 0.00 0.00 0.00 0.00 0.00 0.00 0.00 0.01 0.01 0.01 0.01 0.01
0.01 0.01 0.01 0.00 0.00 0.00 0.00 0.01 0.03 0.03 0.01 0.01 0.01 0.05 0.05 0.03 0.01 0.01 0.00 0.00 0.01 0.01 0.01 0.02 0.02 0.01 0.00 0.00 0.00 0.00 0.00 0.00 0.00 0.00 0.00 0.00 0.00 0.01 0.03 0.07 0.08 0.08 0.07 0.07
0.00 0.00 0.00 0.00 0.00 0.00 0.00 0.00 0.00 0.01 0.02 0.01 0.00 0.03 0.05 0.03 0.03 0.02 0.00 0.01 0.02 0.01 0.00 0.01 0.04 0.08 0.09 0.07 0.05 0.06 0.08 0.10 0.10 0.11 0.09 0.07 0.05 0.04 0.02 0.07 0.11 0.12 0.13 0.16
0.00 0.00 0.01 0.00 0.00 0.00 0.01 0.01 0.01 0.02 0.02 0.01 0.01 0.02 0.04 0.06 0.15 0.11 0.08 0.08 0.05 0.01 0.00 0.00 0.00 0.00 0.01 0.02 0.04 0.05 0.07 0.11 0.12 0.16 0.20 0.24 0.27 0.25 0.23 0.19 0.15 0.16 0.24 0.24
0.00 0.00 0.00 0.00 0.00 0.00 0.01 0.02 0.03 0.04 0.03 0.01 0.02 0.02 0.04 0.08 0.19 0.34 0.29 0.21 0.19 0.19 0.14 0.08 0.04 0.02 0.01 0.00 0.00 0.00 0.00 0.00 0.00 0.00 0.01 0.04 0.03 0.07 0.12 0.18 0.21 0.23 0.26 0.37
0.00 0.00 0.00 0.01 0.00 0.00 0.01 0.04 0.07 0.09 0.04 0.02 0.01 0.01 0.01 0.01 0.02 0.05 0.05 0.06 0.08 0.09 0.06 0.04 0.04 0.04 0.03 0.03 0.01 0.00 0.01 0.03 0.03 0.01 0.02 0.03 0.03 0.03 0.03 0.05 0.07 0.12 0.19 0.25
0.00 0.01 0.01 0.01 0.00 0.00 0.00 0.03 0.07 0.16 0.12 0.04 0.02 0.01 0.01 0.01 0.00 0.00 0.02 0.02 0.01 0.02 0.01 0.00 0.00 0.01 0.00 0.00 0.00 0.00 0.00 0.02 0.05 0.01 0.02 0.02 0.03 0.03 0.03 0.07 0.08 0.08 0.10 0.30
0.00 0.00 0.00 0.00 0.01 0.01 0.02 0.03 0.04 0.07 0.15 0.21 0.18 0.09 0.05 0.04 0.06 0.09 0.09 0.08 0.07 0.05 0.02 0.01 0.02 0.01 0.00 0.00 0.00 0.00 0.00 0.00 0.01 0.01 0.02 0.03 0.06 0.08 0.14 0.16 0.14 0.13 0.11 0.28
0.01 0.03 0.02 0.03 0.07 0.10 0.10 0.09 0.10 0.10 0.10 0.11 0.16 0.21 0.18 0.13 0.11 0.11 0.13 0.13 0.11 0.09 0.07 0.05 0.09 0.06 0.01 0.02 0.04 0.01 0.01 0.00 0.01 0.02 0.02 0.09 0.16 0.14 0.15 0.18 0.18 0.18 0.19 0.22
0.21 0.17 0.11 0.13 0.19 0.24 0.24 0.27 0.27 0.27 0.25 0.21 0.18 0.17 0.16 0.12 0.09 0.09 0.09 0.10 0.10 0.08 0.08 0.07 0.09 0.04 0.02 0.04 0.08 0.02 0.01 0.01 0.03 0.05 0.14 0.20 0.19 0.21 0.23 0.29 0.28 0.24 0.23 0.22
0.25 0.28 0.28 0.30 0.40 0.34 0.28 0.23 0.15 0.10 0.06 0.04 0.05 0.05 0.03 0.02 0.01 0.01 0.02 0.03 0.04 0.05 0.07 0.07 0.08 0.07 0.09 0.14 0.16 0.06 0.06 0.07 0.13 0.19 0.27 0.34 0.35 0.32 0.27 0.24 0.27 0.29 0.29 0.30
0.09 0.11 0.15 0.19 0.22 0.20 0.12 0.12 0.13 0.14 0.08 0.04 0.03 0.03 0.04 0.03 0.02 0.01 0.02 0.02 0.02 0.07 0.04 0.06 0.09 0.14 0.18 0.27 0.23 0.19 0.22 0.30 0.33 0.35 0.35 0.34 0.34 0.30 0.27 0.26 0.26 0.24 0.28 0.28
0.13 0.06 0.04 0.03 0.03 0.06 0.10 0.12 0.14 0.18 0.17 0.12 0.08 0.05 0.04 0.04 0.04 0.04 0.05 0.04 0.04 0.06 0.06 0.07 0.11 0.15 0.17 0.18 0.15 0.21 0.23 0.27 0.28 0.26 0.24 0.25 0.23 0.22 0.20 0.18 0.19 0.21 0.20 0.18
0.21 0.09 0.03 0.01 0.00 0.00 0.01 0.01 0.00 0.02 0.05 0.06 0.06 0.06 0.06 0.07 0.05 0.04 0.03 0.03 0.03 0.02 0.02 0.06 0.10 0.12 0.13 0.13 0.17 0.26 0.26 0.27 0.26 0.23 0.20 0.21 0.18 0.17 0.18 0.16 0.16 0.13 0.12 0.13
0.12 0.06 0.04 0.02 0.02 0.03 0.04 0.03 0.03 0.03 0.02 0.02 0.01 0.01 0.01 0.01 0.00 0.00 0.01 0.02 0.02 0.01 0.00 0.01 0.01 0.01 0.02 0.04 0.08 0.11 0.12 0.12 0.13 0.14 0.12 0.11 0.09 0.08 0.08 0.08 0.09 0.09 0.12 0.09
0.09 0.08 0.06 0.05 0.04 0.03 0.04 0.06 0.06 0.10 0.07 0.04 0.04 0.05 0.03 0.01 0.00 0.00 0.01 0.03 0.03 0.05 0.05 0.06 0.04 0.03 0.02 0.01 0.01 0.01 0.01 0.03 0.07 0.08 0.08 0.08 0.07 0.08 0.07 0.06 0.06 0.07 0.10 0.11
0.01 0.01 0.01 0.01 0.01 0.01 0.00 0.01 0.01 0.01 0.01 0.01 0.02 0.03 0.02 0.01 0.01 0.01 0.02 0.02 0.03 0.05 0.11 0.14 0.13 0.09 0.06 0.05 0.04 0.02 0.02 0.01 0.03 0.06 0.07 0.07 0.07 0.06 0.06 0.05 0.06 0.07 0.08 0.12

GFSNGP_prec_precacc_147.txt.gz
Total_Precipitation_Accumulation
0.43 0.17 0.67 0.68 0.52 0.76 1.52 0.99 1.09 0.39 0.20 0.04 0.04 0.05 0.02 0.01 0.03 0.06 0.04 0.01 0.01 0.00 0.01 0.00 0.01 0.02 0.02 0.04 0.08 0.25 0.52 0.47 0.42 1.01 0.78 0.92 1.14 1.10 1.53 1.22 1.33 1.23 1.01 0.93
0.83 0.36 0.36 0.62 0.61 0.81 0.83 0.77 0.84 0.30 0.23 0.04 0.01 0.01 0.02 0.11 0.15 0.08 0.05 0.02 0.00 0.00 0.00 0.01 0.01 0.00 0.00 0.03 0.06 0.07 0.09 0.10 0.20 0.52 0.48 0.54 0.75 0.77 1.08 1.33 1.53 1.71 1.53 1.28
0.71 0.48 0.70 1.12 0.77 0.59 0.38 0.37 0.49 0.47 0.13 0.07 0.11 0.06 0.17 0.16 0.09 0.10 0.06 0.01 0.00 0.00 0.00 0.00 0.00 0.00 0.01 0.03 0.02 0.03 0.06 0.06 0.04 0.15 0.27 0.16 0.42 0.50 0.69 1.12 1.08 1.28 1.70 2.03
0.75 0.73 1.02 0.63 0.51 0.35 0.36 0.36 0.32 0.16 0.04 0.07 0.12 0.11 0.26 0.06 0.07 0.05 0.02 0.00 0.00 0.00 0.00 0.00 0.00 0.00 0.01 0.12 0.06 0.33 0.14 0.29 0.37 0.34 0.30 0.25 0.28 0.47 0.42 0.56 0.86 1.03 1.13 1.49
0.46 0.38 0.25 0.02 0.05 0.17 0.23 0.37 0.20 0.06 0.02 0.04 0.03 0.15 0.30 0.06 0.04 0.03 0.01 0.00 0.00 0.00 0.00 0.00 0.00 0.00 0.01 0.00 0.01 0.06 0.21 0.40 0.28 0.42 0.30 0.33 0.60 0.68 0.92 1.15 1.03 0.88 0.80 0.68
0.40 0.36 0.09 0.00 0.00 0.00 0.03 0.21 0.30 0.17 0.09 0.06 0.04 0.15 0.34 0.28 0.18 0.08 0.00 0.00 0.00 0.00 0.00 0.01 0.01 0.03 0.02 0.04 0.05 0.08 0.16 0.29 0.34 0.46 0.70 0.71 0.87 0.74 0.55 0.57 0.62 0.50 0.32 0.20
0.35 0.37 0.03 0.00 0.00 0.00 0.04 0.12 0.11 0.16 0.16 0.07 0.05 0.09 0.38 0.51 0.38 0.19 0.09 0.06 0.06 0.06 0.07 0.10 0.18 0.19 0.16 0.29 0.38 0.45 0.58 0.88 0.67 0.67 0.84 0.73 0.59 0.50 0.32 0.18 0.13 0.09 0.05 0.02
0.22 0.27 0.04 0.00 0.00 0.01 0.01 0.00 0.00 0.05 0.14 0.16 0.14 0.06 0.09 0.23 0.25 0.26 0.26 0.29 0.32 0.23 0.34 0.46 0.74 0.62 0.51 0.60 0.67 0.67 0.50 0.43 0.43 0.32 0.24 0.18 0.08 0.04 0.01 0.00 0.00 0.00 0.00 0.00
0.08 0.05 0.01 0.01 0.00 0.00 0.00 0.00 0.00 0.01 0.11 0.17 0.21 0.12 0.05 0.06 0.07 0.04 0.04 0.13 0.18 0.25 0.41 0.42 0.51 0.38 0.39 0.25 0.25 0.25 0.14 0.10 0.08 0.05 0.01 0.00 0.00 0.00 0.00 0.00 0.00 0.00 0.00 0.00
0.00 0.01 0.04 0.16 0.17 0.08 0.04 0.01 0.00 0.00 0.00 0.00 0.06 0.11 0.01 0.01 0.01 0.02 0.02 0.02 0.01 0.01 0.01 0.04 0.03 0.03 0.03 0.02 0.03 0.03 0.01 0.00 0.00 0.00 0.00 0.00 0.00 0.00 0.00 0.00 0.00 0.00 0.00 0.00
0.01 0.00 0.00 0.00 0.02 0.05 0.07 0.07 0.05 0.03 0.01 0.00 0.01 0.02 0.02 0.03 0.01 0.00 0.00 0.00 0.00 0.00 0.00 0.01 0.00 0.00 0.00 0.00 0.00 0.00 0.00 0.00 0.00 0.00 0.00 0.00 0.00 0.00 0.00 0.01 0.01 0.01 0.01 0.01
0.01 0.01 0.01 0.00 0.00 0.00 0.00 0.01 0.03 0.03 0.01 0.01 0.01 0.05 0.05 0.03 0.01 0.01 0.00 0.00 0.01 0.01 0.01 0.02 0.02 0.01 0.00 0.00 0.00 0.00 0.00 0.00 0.00 0.00 0.00 0.00 0.00 0.01 0.03 0.07 0.08 0.08 0.07 0.07
0.00 0.00 0.00 0.00 0.00 0.00 0.00 0.00 0.00 0.01 0.02 0.01 0.00 0.03 0.05 0.03 0.03 0.02 0.00 0.01 0.02 0.01 0.00 0.01 0.04 0.08 0.09 0.07 0.05 0.06 0.08 0.10 0.10 0.11 0.09 0.07 0.05 0.04 0.02 0.07 0.11 0.12 0.13 0.16
0.00 0.00 0.01 0.00 0.00 0.00 0.01 0.01 0.01 0.02 0.02 0.01 0.01 0.02 0.04 0.06 0.15 0.11 0.08 0.08 0.05 0.01 0.00 0.00 0.00 0.00 0.01 0.02 0.04 0.05 0.07 0.11 0.12 0.16 0.20 0.24 0.27 0.25 0.23 0.19 0.15 0.16 0.24 0.24
0.00 0.00 0.00 0.00 0.00 0.00 0.01 0.02 0.03 0.04 0.03 0.01 0.02 0.02 0.04 0.08 0.19 0.34 0.29 0.21 0.21 0.20 0.14 0.08 0.04 0.02 0.01 0.00 0.00 0.00 0.00 0.00 0.00 0.00 0.01 0.04 0.03 0.07 0.12 0.18 0.21 0.23 0.26 0.37
0.00 0.00 0.00 0.01 0.00 0.00 0.01 0.04 0.07 0.09 0.04 0.02 0.01 0.01 0.01 0.01 0.02 0.05 0.05 0.07 0.12 0.12 0.07 0.04 0.04 0.04 0.03 0.03 0.01 0.00 0.01 0.03 0.03 0.01 0.02 0.03 0.03 0.03 0.03 0.05 0.07 0.12 0.19 0.25
0.00 0.01 0.01 0.01 0.00 0.00 0.00 0.03 0.07 0.16 0.12 0.04 0.02 0.01 0.01 0.01 0.00 0.00 0.02 0.03 0.04 0.05 0.02 0.00 0.00 0.01 0.00 0.00 0.00 0.00 0.00 0.02 0.05 0.01 0.02 0.02 0.03 0.03 0.04 0.07 0.08 0.08 0.10 0.30
0.01 0.01 0.02 0.01 0.01 0.02 0.02 0.03 0.04 0.07 0.15 0.21 0.18 0.09 0.05 0.04 0.06 0.09 0.10 0.09 0.07 0.06 0.04 0.02 0.02 0.01 0.00 0.00 0.00 0.00 0.00 0.00 0.01 0.01 0.02 0.03 0.06 0.09 0.14 0.16 0.14 0.13 0.11 0.28
0.02 0.04 0.04 0.05 0.11 0.14 0.10 0.09 0.10 0.10 0.10 0.11 0.16 0.21 0.18 0.13 0.11 0.11 0.13 0.13 0.11 0.09 0.07 0.06 0.09 0.06 0.01 0.02 0.04 0.01 0.01 0.00 0.01 0.02 0.02 0.09 0.16 0.14 0.16 0.18 0.18 0.18 0.19 0.22
0.21 0.19 0.13 0.14 0.20 0.24 0.25 0.27 0.27 0.27 0.25 0.21 0.18 0.17 0.16 0.12 0.09 0.09 0.09 0.10 0.10 0.08 0.08 0.08 0.09 0.04 0.02 0.04 0.08 0.02 0.01 0.01 0.03 0.05 0.14 0.20 0.19 0.21 0.23 0.29 0.28 0.24 0.23 0.22
0.25 0.28 0.29 0.31 0.41 0.34 0.28 0.23 0.15 0.10 0.07 0.05 0.05 0.05 0.03 0.02 0.01 0.02 0.02 0.03 0.04 0.06 0.08 0.08 0.08 0.07 0.09 0.14 0.16 0.06 0.06 0.07 0.13 0.19 0.27 0.34 0.36 0.33 0.27 0.24 0.27 0.29 0.29 0.30
0.09 0.11 0.15 0.19 0.22 0.20 0.12 0.12 0.13 0.17 0.14 0.08 0.04 0.03 0.04 0.03 0.03 0.02 0.02 0.03 0.02 0.07 0.04 0.06 0.09 0.14 0.18 0.27 0.23 0.19 0.22 0.30 0.33 0.35 0.35 0.34 0.34 0.30 0.27 0.26 0.26 0.24 0.28 0.28
0.13 0.06 0.04 0.03 0.03 0.06 0.10 0.12 0.15 0.19 0.19 0.14 0.10 0.07 0.05 0.05 0.04 0.05 0.06 0.05 0.04 0.07 0.06 0.08 0.11 0.15 0.17 0.18 0.15 0.21 0.23 0.27 0.28 0.26 0.24 0.25 0.23 0.22 0.20 0.18 0.19 0.21 0.20 0.18
0.21 0.09 0.03 0.01 0.00 0.00 0.01 0.01 0.01 0.03 0.06 0.07 0.06 0.06 0.07 0.08 0.06 0.04 0.03 0.03 0.03 0.02 0.02 0.06 0.10 0.12 0.13 0.13 0.17 0.26 0.26 0.27 0.26 0.23 0.21 0.21 0.18 0.17 0.18 0.16 0.16 0.13 0.12 0.13
0.12 0.06 0.04 0.02 0.02 0.03 0.04 0.03 0.03 0.03 0.03 0.02 0.01 0.01 0.01 0.01 0.00 0.00 0.01 0.02 0.02 0.01 0.00 0.01 0.01 0.02 0.02 0.04 0.08 0.11 0.12 0.12 0.13 0.14 0.12 0.11 0.09 0.08 0.08 0.08 0.09 0.09 0.12 0.09
0.09 0.08 0.06 0.05 0.04 0.03 0.04 0.06 0.06 0.10 0.07 0.04 0.04 0.05 0.03 0.01 0.00 0.00 0.01 0.03 0.03 0.05 0.05 0.06 0.04 0.03 0.02 0.01 0.02 0.01 0.01 0.03 0.07 0.08 0.08 0.08 0.07 0.08 0.07 0.06 0.06 0.07 0.10 0.11
0.01 0.01 0.01 0.01 0.01 0.01 0.00 0.01 0.01 0.01 0.01 0.01 0.02 0.03 0.02 0.01 0.01 0.01 0.02 0.02 0.03 0.05 0.11 0.14 0.13 0.10 0.06 0.05 0.04 0.02 0.02 0.01 0.03 0.06 0.07 0.07 0.07 0.06 0.06 0.05 0.06 0.07 0.08 0.12

GFSNGP_prec_precacc_150.txt.gz
Total_Precipitation_Accumulation
0.43 0.17 0.67 0.68 0.52 0.76 1.52 0.99 1.09 0.39 0.20 0.04 0.04 0.05 0.02 0.01 0.03 0.06 0.04 0.01 0.01 0.00 0.01 0.00 0.01 0.02 0.02 0.04 0.08 0.25 0.52 0.47 0.42 1.01 0.78 0.92 1.14 1.10 1.53 1.22 1.35 1.26 1.05 0.95
0.83 0.36 0.36 0.62 0.61 0.81 0.83 0.77 0.84 0.30 0.23 0.04 0.01 0.01 0.02 0.11 0.15 0.08 0.05 0.02 0.00 0.00 0.00 0.01 0.01 0.00 0.00 0.03 0.06 0.07 0.09 0.10 0.20 0.52 0.48 0.54 0.75 0.77 1.09 1.33 1.54 1.76 1.61 1.32
0.71 0.48 0.70 1.12 0.77 0.59 0.38 0.37 0.49 0.47 0.13 0.07 0.11 0.06 0.17 0.16 0.09 0.10 0.06 0.01 0.00 0.00 0.00 0.00 0.00 0.00 0.01 0.03 0.02 0.03 0.06 0.06 0.04 0.15 0.27 0.16 0.42 0.50 0.69 1.14 1.11 1.35 1.79 2.07
0.75 0.73 1.02 0.63 0.51 0.35 0.36 0.36 0.32 0.16 0.04 0.07 0.12 0.11 0.26 0.06 0.07 0.05 0.02 0.00 0.00 0.00 0.00 0.00 0.00 0.00 0.01 0.12 0.06 0.33 0.14 0.29 0.37 0.34 0.30 0.25 0.28 0.47 0.42 0.56 0.86 1.05 1.17 1.56
0.46 0.38 0.25 0.02 0.05 0.17 0.23 0.37 0.20 0.06 0.02 0.04 0.03 0.15 0.30 0.06 0.04 0.03 0.01 0.00 0.00 0.00 0.00 0.00 0.00 0.00 0.01 0.00 0.01 0.06 0.21 0.40 0.28 0.42 0.30 0.33 0.60 0.68 0.92 1.15 1.03 0.88 0.81 0.73
0.40 0.36 0.09 0.00 0.00 0.00 0.03 0.21 0.30 0.17 0.09 0.06 0.04 0.15 0.34 0.28 0.18 0.08 0.00 0.00 0.00 0.00 0.00 0.01 0.01 0.03 0.02 0.04 0.05 0.08 0.16 0.29 0.34 0.46 0.70 0.71 0.87 0.74 0.55 0.57 0.62 0.50 0.32 0.20
0.35 0.37 0.03 0.00 0.00 0.00 0.04 0.12 0.11 0.16 0.16 0.07 0.05 0.09 0.38 0.51 0.38 0.19 0.09 0.06 0.06 0.06 0.07 0.10 0.18 0.19 0.16 0.29 0.38 0.45 0.58 0.88 0.67 0.67 0.84 0.73 0.59 0.50 0.32 0.18 0.13 0.09 0.05 0.02
0.22 0.28 0.04 0.00 0.00 0.01 0.01 0.00 0.00 0.05 0.14 0.16 0.14 0.06 0.09 0.23 0.25 0.26 0.26 0.29 0.32 0.23 0.34 0.46 0.74 0.62 0.51 0.60 0.67 0.67 0.50 0.43 0.43 0.32 0.24 0.18 0.08 0.04 0.01 0.00 0.00 0.00 0.00 0.00
0.08 0.05 0.01 0.01 0.00 0.00 0.00 0.00 0.00 0.01 0.11 0.17 0.21 0.12 0.05 0.06 0.07 0.04 0.04 0.13 0.18 0.25 0.41 0.42 0.51 0.38 0.39 0.25 0.25 0.25 0.14 0.10 0.08 0.05 0.01 0.00 0.00 0.00 0.00 0.00 0.00 0.00 0.00 0.00
0.00 0.01 0.04 0.16 0.17 0.08 0.04 0.01 0.00 0.00 0.00 0.00 0.06 0.11 0.01 0.01 0.01 0.02 0.02 0.02 0.01 0.01 0.01 0.04 0.03 0.03 0.03 0.02 0.03 0.03 0.01 0.00 0.00 0.00 0.00 0.00 0.00 0.00 0.00 0.00 0.00 0.00 0.00 0.00
0.01 0.00 0.00 0.00 0.02 0.05 0.07 0.07 0.05 0.03 0.01 0.00 0.01 0.02 0.02 0.03 0.01 0.00 0.00 0.00 0.00 0.00 0.00 0.01 0.00 0.00 0.00 0.00 0.00 0.00 0.00 0.00 0.00 0.00 0.00 0.00 0.00 0.00 0.00 0.01 0.01 0.01 0.01 0.01
0.01 0.01 0.01 0.00 0.00 0.00 0.00 0.01 0.03 0.03 0.01 0.01 0.01 0.05 0.05 0.03 0.01 0.01 0.00 0.00 0.01 0.01 0.02 0.02 0.02 0.01 0.00 0.00 0.00 0.00 0.00 0.00 0.00 0.00 0.00 0.00 0.00 0.01 0.03 0.07 0.08 0.08 0.07 0.07
0.00 0.00 0.00 0.00 0.00 0.00 0.00 0.00 0.00 0.01 0.02 0.01 0.00 0.03 0.05 0.03 0.03 0.02 0.00 0.01 0.02 0.01 0.00 0.01 0.04 0.08 0.09 0.07 0.05 0.06 0.08 0.10 0.10 0.11 0.09 0.07 0.05 0.04 0.02 0.07 0.11 0.12 0.13 0.16
0.00 0.01 0.01 0.00 0.00 0.00 0.01 0.01 0.01 0.02 0.02 0.01 0.01 0.02 0.04 0.06 0.15 0.11 0.08 0.08 0.06 0.02 0.00 0.00 0.00 0.01 0.01 0.02 0.04 0.05 0.07 0.11 0.12 0.16 0.20 0.24 0.27 0.25 0.23 0.19 0.15 0.16 0.24 0.24
0.00 0.00 0.00 0.00 0.00 0.00 0.01 0.02 0.03 0.04 0.03 0.01 0.02 0.02 0.04 0.08 0.19 0.34 0.29 0.21 0.21 0.22 0.16 0.10 0.06 0.03 0.01 0.00 0.00 0.00 0.00 0.00 0.00 0.00 0.01 0.04 0.03 0.07 0.12 0.18 0.21 0.23 0.26 0.37
0.00 0.00 0.00 0.01 0.00 0.00 0.01 0.04 0.07 0.09 0.04 0.02 0.01 0.01 0.01 0.01 0.02 0.05 0.05 0.07 0.12 0.13 0.10 0.09 0.08 0.05 0.04 0.03 0.01 0.00 0.01 0.03 0.03 0.01 0.02 0.03 0.03 0.03 0.03 0.05 0.07 0.12 0.19 0.25
0.01 0.01 0.01 0.01 0.00 0.00 0.00 0.03 0.08 0.17 0.13 0.04 0.02 0.01 0.01 0.01 0.00 0.00 0.02 0.03 0.04 0.05 0.05 0.04 0.02 0.02 0.02 0.00 0.00 0.00 0.00 0.02 0.05 0.01 0.02 0.02 0.03 0.03 0.04 0.07 0.08 0.08 0.10 0.30
0.01 0.01 0.02 0.02 0.02 0.03 0.04 0.04 0.05 0.12 0.17 0.21 0.18 0.09 0.05 0.04 0.06 0.09 0.10 0.09 0.07 0.06 0.04 0.02 0.03 0.02 0.02 0.01 0.00 0.00 0.00 0.00 0.01 0.01 0.02 0.03 0.06 0.09 0.14 0.16 0.14 0.13 0.11 0.28
0.06 0.07 0.06 0.06 0.11 0.14 0.12 0.10 0.12 0.12 0.10 0.11 0.16 0.21 0.18 0.13 0.11 0.11 0.13 0.13 0.11 0.09 0.07 0.06 0.09 0.07 0.02 0.04 0.05 0.02 0.02 0.01 0.02 0.02 0.02 0.09 0.16 0.14 0.16 0.18 0.18 0.18 0.19 0.22
0.23 0.20 0.14 0.14 0.20 0.24 0.25 0.27 0.27 0.27 0.25 0.22 0.19 0.17 0.16 0.12 0.09 0.09 0.09 0.10 0.10 0.08 0.08 0.08 0.09 0.04 0.02 0.05 0.09 0.03 0.03 0.02 0.03 0.05 0.14 0.20 0.19 0.21 0.23 0.29 0.28 0.24 0.23 0.22
0.25 0.28 0.29 0.31 0.41 0.34 0.28 0.23 0.15 0.10 0.07 0.08 0.08 0.06 0.03 0.02 0.01 0.02 0.03 0.04 0.05 0.06 0.08 0.08 0.08 0.07 0.09 0.14 0.16 0.06 0.06 0.07 0.13 0.19 0.27 0.34 0.36 0.33 0.27 0.24 0.27 0.29 0.29 0.30
0.09 0.11 0.15 0.19 0.22 0.20 0.12 0.12 0.13 0.17 0.14 0.09 0.06 0.05 0.05 0.04 0.04 0.04 0.06 0.08 0.08 0.14 0.09 0.08 0.10 0.14 0.18 0.28 0.24 0.19 0.22 0.30 0.33 0.35 0.35 0.34 0.34 0.30 0.27 0.26 0.27 0.24 0.28 0.28
0.13 0.06 0.04 0.03 0.03 0.06 0.10 0.12 0.15 0.19 0.20 0.15 0.11 0.08 0.07 0.07 0.08 0.12 0.13 0.10 0.08 0.09 0.08 0.09 0.12 0.16 0.18 0.18 0.15 0.22 0.23 0.27 0.28 0.26 0.24 0.25 0.23 0.22 0.20 0.18 0.19 0.21 0.20 0.18
0.21 0.09 0.03 0.01 0.00 0.00 0.01 0.01 0.01 0.03 0.06 0.08 0.08 0.09 0.10 0.09 0.07 0.06 0.05 0.04 0.03 0.02 0.02 0.06 0.11 0.13 0.13 0.13 0.17 0.26 0.26 0.27 0.27 0.23 0.21 0.22 0.19 0.18 0.18 0.16 0.16 0.13 0.12 0.13
0.12 0.06 0.04 0.02 0.02 0.03 0.04 0.03 0.03 0.03 0.03 0.02 0.01 0.02 0.02 0.01 0.01 0.02 0.03 0.03 0.02 0.01 0.00 0.02 0.02 0.02 0.02 0.04 0.09 0.12 0.12 0.13 0.14 0.15 0.13 0.13 0.10 0.09 0.08 0.08 0.09 0.09 0.12 0.09
0.09 0.08 0.06 0.05 0.04 0.03 0.04 0.06 0.06 0.10 0.07 0.04 0.04 0.05 0.03 0.01 0.01 0.01 0.02 0.04 0.03 0.05 0.06 0.07 0.05 0.04 0.03 0.02 0.03 0.02 0.03 0.04 0.09 0.11 0.10 0.09 0.07 0.08 0.07 0.06 0.06 0.07 0.10 0.11
0.01 0.01 0.01 0.01 0.01 0.01 0.00 0.01 0.01 0.01 0.01 0.01 0.02 0.03 0.02 0.02 0.02 0.03 0.03 0.02 0.03 0.06 0.11 0.14 0.14 0.12 0.08 0.07 0.06 0.04 0.03 0.02 0.03 0.06 0.07 0.07 0.07 0.06 0.06 0.05 0.06 0.07 0.08 0.12

GFSNGP_prec_precacc_156.txt.gz
Total_Precipitation_Accumulation
0.43 0.17 0.67 0.68 0.52 0.76 1.52 0.99 1.09 0.39 0.20 0.04 0.04 0.05 0.02 0.01 0.03 0.06 0.04 0.01 0.01 0.00 0.01 0.00 0.01 0.02 0.02 0.04 0.08 0.25 0.52 0.47 0.42 1.01 0.78 0.92 1.14 1.10 1.53 1.22 1.35 1.26 1.05 0.99
0.83 0.36 0.36 0.62 0.61 0.81 0.83 0.77 0.84 0.30 0.23 0.04 0.01 0.01 0.02 0.11 0.15 0.08 0.05 0.02 0.00 0.00 0.00 0.01 0.01 0.00 0.00 0.03 0.06 0.07 0.09 0.10 0.20 0.52 0.48 0.54 0.75 0.77 1.09 1.33 1.54 1.76 1.61 1.34
0.72 0.48 0.70 1.12 0.77 0.60 0.38 0.37 0.49 0.47 0.13 0.07 0.11 0.06 0.17 0.16 0.09 0.10 0.06 0.01 0.00 0.00 0.00 0.00 0.00 0.00 0.01 0.03 0.02 0.03 0.06 0.06 0.04 0.15 0.27 0.16 0.42 0.50 0.69 1.14 1.11 1.35 1.80 2.09
0.77 0.73 1.03 0.63 0.51 0.35 0.36 0.36 0.32 0.16 0.04 0.07 0.12 0.11 0.26 0.06 0.07 0.05 0.02 0.00 0.00 0.00 0.00 0.00 0.00 0.00 0.01 0.12 0.06 0.33 0.14 0.29 0.37 0.34 0.30 0.25 0.28 0.47 0.42 0.56 0.86 1.05 1.17 1.56
0.49 0.39 0.25 0.02 0.05 0.17 0.23 0.37 0.20 0.06 0.02 0.04 0.03 0.15 0.30 0.06 0.04 0.03 0.01 0.00 0.00 0.00 0.00 0.00 0.00 0.00 0.01 0.00 0.01 0.06 0.21 0.40 0.28 0.42 0.30 0.33 0.60 0.68 0.92 1.15 1.03 0.88 0.81 0.73
0.41 0.36 0.09 0.00 0.00 0.00 0.03 0.21 0.30 0.17 0.09 0.06 0.04 0.15 0.34 0.28 0.18 0.08 0.00 0.00 0.00 0.00 0.00 0.01 0.01 0.03 0.02 0.04 0.05 0.08 0.16 0.29 0.34 0.46 0.70 0.71 0.87 0.74 0.55 0.57 0.62 0.50 0.32 0.20
0.35 0.38 0.03 0.00 0.00 0.00 0.04 0.12 0.11 0.16 0.16 0.07 0.05 0.09 0.38 0.51 0.38 0.19 0.09 0.06 0.06 0.06 0.07 0.10 0.18 0.19 0.16 0.29 0.38 0.45 0.58 0.88 0.67 0.67 0.84 0.73 0.59 0.50 0.32 0.18 0.13 0.09 0.05 0.02
0.25 0.33 0.06 0.00 0.00 0.01 0.01 0.00 0.00 0.05 0.14 0.16 0.14 0.06 0.09 0.23 0.25 0.26 0.26 0.29 0.32 0.23 0.34 0.46 0.74 0.62 0.51 0.60 0.67 0.67 0.50 0.43 0.43 0.32 0.24 0.18 0.08 0.04 0.01 0.00 0.00 0.00 0.00 0.00
0.11 0.08 0.01 0.01 0.00 0.00 0.00 0.00 0.00 0.01 0.11 0.17 0.21 0.12 0.05 0.06 0.07 0.04 0.04 0.13 0.18 0.25 0.41 0.42 0.51 0.38 0.39 0.25 0.25 0.25 0.14 0.10 0.08 0.05 0.01 0.00 0.00 0.00 0.00 0.00 0.00 0.00 0.00 0.00
0.01 0.01 0.04 0.16 0.17 0.08 0.04 0.01 0.00 0.00 0.00 0.00 0.06 0.11 0.01 0.01 0.01 0.02 0.02 0.02 0.01 0.01 0.01 0.04 0.03 0.03 0.03 0.02 0.03 0.03 0.01 0.00 0.00 0.00 0.00 0.00 0.00 0.00 0.00 0.00 0.00 0.00 0.00 0.00
0.01 0.00 0.00 0.00 0.02 0.05 0.07 0.07 0.05 0.03 0.01 0.00 0.01 0.02 0.02 0.03 0.01 0.00 0.00 0.00 0.00 0.00 0.00 0.01 0.00 0.00 0.00 0.00 0.00 0.00 0.01 0.01 0.00 0.00 0.00 0.00 0.00 0.00 0.00 0.01 0.01 0.01 0.01 0.01
0.02 0.01 0.02 0.01 0.00 0.00 0.00 0.01 0.03 0.03 0.01 0.01 0.01 0.05 0.05 0.03 0.01 0.01 0.00 0.00 0.01 0.01 0.02 0.02 0.02 0.01 0.00 0.00 0.00 0.00 0.01 0.01 0.01 0.02 0.01 0.00 0.00 0.01 0.03 0.07 0.08 0.08 0.07 0.07
0.01 0.01 0.00 0.00 0.00 0.00 0.01 0.00 0.00 0.01 0.02 0.01 0.00 0.03 0.05 0.03 0.03 0.02 0.00 0.01 0.02 0.01 0.00 0.01 0.04 0.08 0.09 0.07 0.06 0.06 0.08 0.10 0.11 0.13 0.10 0.07 0.05 0.04 0.02 0.07 0.11 0.12 0.13 0.16
0.01 0.01 0.01 0.01 0.01 0.01 0.01 0.01 0.01 0.02 0.02 0.01 0.01 0.02 0.04 0.06 0.15 0.11 0.08 0.08 0.06 0.02 0.00 0.00 0.00 0.01 0.01 0.03 0.04 0.05 0.07 0.12 0.14 0.18 0.21 0.25 0.27 0.25 0.23 0.19 0.15 0.16 0.24 0.24
0.00 0.00 0.02 0.05 0.02 0.00 0.01 0.02 0.03 0.04 0.03 0.01 0.02 0.03 0.04 0.09 0.19 0.34 0.29 0.21 0.21 0.22 0.16 0.10 0.06 0.03 0.01 0.02 0.01 0.01 0.01 0.01 0.02 0.03 0.06 0.06 0.04 0.07 0.12 0.18 0.21 0.23 0.26 0.37
0.01 0.01 0.00 0.01 0.00 0.00 0.01 0.04 0.07 0.09 0.04 0.02 0.01 0.01 0.01 0.02 0.02 0.05 0.05 0.07 0.12 0.13 0.10 0.09 0.08 0.05 0.05 0.04 0.01 0.01 0.01 0.05 0.06 0.05 0.07 0.07 0.04 0.03 0.03 0.05 0.07 0.12 0.19 0.25
0.02 0.02 0.01 0.01 0.01 0.00 0.00 0.03 0.08 0.17 0.14 0.05 0.02 0.01 0.01 0.01 0.00 0.00 0.02 0.03 0.04 0.05 0.05 0.04 0.02 0.02 0.02 0.01 0.01 0.00 0.01 0.03 0.09 0.04 0.05 0.07 0.05 0.04 0.04 0.07 0.08 0.08 0.10 0.30
0.03 0.02 0.02 0.02 0.02 0.03 0.04 0.04 0.05 0.12 0.19 0.21 0.18 0.09 0.05 0.04 0.06 0.09 0.10 0.09 0.08 0.06 0.05 0.05 0.04 0.03 0.02 0.02 0.01 0.01 0.01 0.02 0.04 0.03 0.04 0.07 0.08 0.09 0.15 0.16 0.14 0.13 0.11 0.29
0.06 0.07 0.07 0.07 0.13 0.15 0.12 0.10 0.12 0.12 0.10 0.11 0.16 0.21 0.18 0.13 0.11 0.11 0.13 0.14 0.15 0.14 0.11 0.10 0.14 0.09 0.04 0.05 0.06 0.04 0.04 0.04 0.06 0.06 0.05 0.11 0.17 0.15 0.16 0.19 0.18 0.18 0.19 0.22
0.23 0.21 0.15 0.15 0.20 0.24 0.25 0.27 0.27 0.27 0.25 0.22 0.19 0.17 0.16 0.12 0.09 0.09 0.10 0.15 0.21 0.23 0.20 0.18 0.16 0.08 0.04 0.06 0.10 0.07 0.12 0.13 0.14 0.14 0.21 0.25 0.23 0.27 0.28 0.33 0.31 0.25 0.23 0.23
0.25 0.28 0.29 0.31 0.41 0.34 0.28 0.23 0.15 0.10 0.07 0.08 0.08 0.06 0.03 0.02 0.02 0.05 0.10 0.14 0.14 0.17 0.18 0.16 0.15 0.11 0.11 0.14 0.16 0.07 0.14 0.21 0.29 0.35 0.41 0.46 0.48 0.45 0.37 0.32 0.34 0.36 0.34 0.33
0.09 0.11 0.15 0.19 0.22 0.20 0.12 0.12 0.13 0.17 0.14 0.09 0.06 0.05 0.05 0.04 0.04 0.06 0.13 0.22 0.20 0.25 0.18 0.16 0.17 0.18 0.21 0.29 0.24 0.20 0.25 0.37 0.45 0.51 0.51 0.49 0.48 0.42 0.40 0.39 0.38 0.34 0.37 0.36
0.13 0.06 0.04 0.03 0.03 0.06 0.10 0.12 0.15 0.19 0.20 0.15 0.11 0.08 0.07 0.07 0.08 0.13 0.15 0.14 0.12 0.13 0.11 0.11 0.15 0.22 0.28 0.29 0.22 0.27 0.29 0.38 0.41 0.41 0.41 0.44 0.43 0.40 0.36 0.33 0.33 0.34 0.31 0.26
0.21 0.09 0.03 0.01 0.00 0.00 0.01 0.01 0.01 0.03 0.06 0.08 0.08 0.09 0.10 0.09 0.07 0.06 0.05 0.07 0.08 0.08 0.06 0.09 0.15 0.21 0.28 0.29 0.35 0.44 0.43 0.43 0.42 0.40 0.37 0.38 0.35 0.32 0.32 0.28 0.27 0.21 0.17 0.16
0.12 0.06 0.04 0.02 0.02 0.03 0.04 0.03 0.03 0.03 0.03 0.02 0.01 0.02 0.02 0.01 0.01 0.02 0.03 0.05 0.06 0.04 0.04 0.05 0.07 0.09 0.13 0.17 0.24 0.28 0.29 0.31 0.31 0.31 0.29 0.27 0.23 0.21 0.18 0.15 0.13 0.12 0.13 0.10
0.09 0.08 0.06 0.05 0.04 0.03 0.04 0.06 0.06 0.10 0.07 0.04 0.04 0.05 0.03 0.01 0.01 0.01 0.02 0.05 0.05 0.07 0.09 0.09 0.07 0.08 0.08 0.09 0.11 0.12 0.13 0.15 0.20 0.21 0.18 0.16 0.12 0.11 0.08 0.06 0.06 0.07 0.10 0.11
0.01 0.01 0.01 0.01 0.01 0.01 0.00 0.01 0.01 0.01 0.01 0.01 0.02 0.03 0.02 0.02 0.02 0.03 0.04 0.05 0.06 0.08 0.14 0.16 0.16 0.16 0.13 0.13 0.12 0.09 0.07 0.06 0.06 0.08 0.09 0.08 0.07 0.06 0.06 0.05 0.06 0.07 0.08 0.12

GFSNGP_prec_precacc_162.txt.gz
Total_Precipitation_Accumulation
0.43 0.17 0.67 0.68 0.52 0.76 1.52 0.99 1.09 0.39 0.20 0.04 0.04 0.05 0.02 0.01 0.03 0.06 0.04 0.01 0.01 0.00 0.01 0.00 0.01 0.02 0.02 0.04 0.08 0.25 0.52 0.47 0.42 1.01 0.78 0.92 1.14 1.10 1.53 1.22 1.35 1.26 1.05 0.99
0.83 0.36 0.36 0.62 0.61 0.81 0.83 0.77 0.84 0.30 0.23 0.04 0.01 0.01 0.02 0.11 0.15 0.08 0.05 0.02 0.00 0.00 0.00 0.01 0.01 0.00 0.00 0.03 0.06 0.07 0.09 0.10 0.20 0.52 0.48 0.54 0.75 0.77 1.09 1.33 1.54 1.76 1.61 1.34
0.73 0.48 0.70 1.12 0.77 0.60 0.38 0.37 0.49 0.47 0.13 0.07 0.11 0.06 0.17 0.16 0.09 0.10 0.06 0.01 0.00 0.00 0.00 0.00 0.00 0.00 0.01 0.03 0.02 0.03 0.06 0.06 0.04 0.15 0.27 0.16 0.42 0.50 0.69 1.14 1.11 1.35 1.80 2.09
0.78 0.74 1.04 0.63 0.51 0.35 0.36 0.36 0.32 0.16 0.04 0.07 0.12 0.11 0.26 0.06 0.07 0.05 0.02 0.00 0.00 0.00 0.00 0.00 0.00 0.00 0.01 0.12 0.06 0.33 0.14 0.29 0.37 0.34 0.30 0.25 0.28 0.47 0.42 0.56 0.86 1.05 1.17 1.56
0.52 0.40 0.25 0.02 0.05 0.17 0.23 0.37 0.20 0.06 0.02 0.04 0.03 0.15 0.30 0.06 0.04 0.03 0.01 0.00 0.00 0.00 0.00 0.00 0.00 0.00 0.01 0.00 0.01 0.06 0.21 0.40 0.28 0.42 0.30 0.33 0.60 0.68 0.92 1.15 1.03 0.88 0.81 0.73
0.45 0.40 0.09 0.00 0.00 0.00 0.03 0.21 0.30 0.17 0.09 0.06 0.04 0.15 0.34 0.28 0.18 0.08 0.00 0.00 0.00 0.00 0.00 0.01 0.01 0.03 0.02 0.04 0.05 0.08 0.16 0.29 0.34 0.46 0.70 0.71 0.87 0.74 0.55 0.57 0.62 0.50 0.32 0.20
0.36 0.40 0.03 0.00 0.00 0.00 0.04 0.12 0.12 0.16 0.16 0.08 0.06 0.09 0.38 0.51 0.38 0.19 0.09 0.06 0.06 0.06 0.07 0.10 0.18 0.19 0.16 0.29 0.38 0.45 0.58 0.88 0.67 0.67 0.84 0.73 0.59 0.50 0.32 0.18 0.13 0.09 0.05 0.02
0.26 0.37 0.08 0.00 0.00 0.01 0.01 0.00 0.00 0.05 0.14 0.16 0.14 0.06 0.09 0.23 0.25 0.26 0.26 0.29 0.32 0.23 0.34 0.46 0.74 0.62 0.51 0.60 0.67 0.67 0.50 0.43 0.43 0.32 0.24 0.18 0.08 0.04 0.01 0.00 0.00 0.00 0.00 0.00
0.11 0.08 0.01 0.01 0.00 0.00 0.00 0.00 0.00 0.01 0.11 0.17 0.21 0.12 0.05 0.06 0.07 0.04 0.04 0.13 0.18 0.25 0.41 0.42 0.51 0.38 0.39 0.25 0.25 0.25 0.14 0.10 0.08 0.05 0.01 0.00 0.00 0.00 0.00 0.00 0.00 0.00 0.00 0.00
0.01 0.01 0.04 0.16 0.17 0.08 0.04 0.01 0.00 0.00 0.00 0.00 0.06 0.11 0.01 0.01 0.01 0.02 0.02 0.02 0.01 0.01 0.01 0.04 0.03 0.03 0.03 0.02 0.03 0.03 0.01 0.00 0.00 0.00 0.00 0.00 0.00 0.00 0.00 0.00 0.00 0.00 0.00 0.00
0.02 0.00 0.00 0.00 0.02 0.05 0.07 0.07 0.05 0.03 0.01 0.00 0.01 0.02 0.02 0.03 0.01 0.00 0.00 0.00 0.00 0.00 0.00 0.01 0.00 0.00 0.00 0.00 0.00 0.00 0.01 0.01 0.00 0.01 0.01 0.01 0.01 0.01 0.01 0.01 0.01 0.01 0.01 0.01
0.02 0.01 0.03 0.02 0.00 0.00 0.00 0.01 0.03 0.03 0.01 0.01 0.01 0.05 0.05 0.03 0.01 0.01 0.00 0.00 0.01 0.01 0.02 0.02 0.02 0.01 0.00 0.00 0.00 0.00 0.01 0.01 0.01 0.02 0.04 0.05 0.04 0.04 0.05 0.08 0.10 0.10 0.08 0.07
0.02 0.01 0.01 0.00 0.00 0.00 0.01 0.00 0.00 0.01 0.02 0.01 0.00 0.03 0.05 0.03 0.03 0.02 0.00 0.01 0.02 0.01 0.00 0.01 0.04 0.08 0.09 0.07 0.06 0.06 0.08 0.10 0.11 0.13 0.11 0.09 0.09 0.08 0.06 0.11 0.17 0.18 0.16 0.16
0.01 0.02 0.03 0.01 0.01 0.01 0.01 0.01 0.01 0.02 0.02 0.01 0.01 0.02 0.04 0.06 0.15 0.11 0.08 0.08 0.06 0.02 0.00 0.00 0.00 0.01 0.01 0.03 0.04 0.05 0.07 0.12 0.14 0.18 0.22 0.27 0.30 0.29 0.28 0.24 0.21 0.26 0.33 0.28
0.00 0.00 0.03 0.05 0.02 0.00 0.01 0.02 0.03 0.04 0.03 0.01 0.02 0.03 0.04 0.09 0.19 0.34 0.29 0.21 0.21 0.22 0.16 0.10 0.06 0.03 0.01 0.02 0.01 0.01 0.01 0.01 0.02 0.04 0.07 0.10 0.09 0.13 0.18 0.25 0.28 0.31 0.35 0.46
0.01 0.01 0.00 0.01 0.00 0.00 0.01 0.04 0.07 0.09 0.04 0.02 0.01 0.01 0.01 0.02 0.02 0.05 0.05 0.07 0.12 0.13 0.10 0.09 0.08 0.05 0.05 0.05 0.04 0.02 0.02 0.08 0.08 0.06 0.08 0.11 0.11 0.10 0.11 0.14 0.16 0.20 0.25 0.32
0.03 0.02 0.01 0.01 0.01 0.00 0.00 0.03 0.08 0.17 0.14 0.05 0.02 0.01 0.01 0.01 0.00 0.00 0.02 0.03 0.04 0.05 0.06 0.06 0.04 0.03 0.03 0.02 0.04 0.03 0.03 0.07 0.14 0.07 0.07 0.09 0.11 0.13 0.14 0.18 0.20 0.18 0.16 0.38
0.04 0.02 0.02 0.02 0.02 0.03 0.04 0.04 0.05 0.12 0.19 0.21 0.18 0.09 0.05 0.04 0.06 0.09 0.10 0.09 0.08 0.06 0.06 0.06 0.06 0.04 0.03 0.03 0.02 0.01 0.01 0.03 0.06 0.06 0.07 0.10 0.14 0.17 0.26 0.31 0.30 0.29 0.24 0.42
0.07 0.08 0.08 0.08 0.13 0.15 0.12 0.10 0.12 0.12 0.10 0.11 0.16 0.21 0.18 0.13 0.11 0.11 0.13 0.14 0.15 0.14 0.11 0.10 0.15 0.10 0.04 0.06 0.08 0.04 0.05 0.07 0.09 0.11 0.11 0.18 0.28 0.25 0.29 0.35 0.39 0.40 0.39 0.45
0.24 0.21 0.15 0.15 0.20 0.24 0.25 0.27 0.27 0.27 0.25 0.22 0.19 0.17 0.16 0.12 0.09 0.09 0.10 0.15 0.21 0.23 0.20 0.18 0.16 0.08 0.04 0.07 0.12 0.07 0.14 0.17 0.22 0.22 0.31 0.36 0.32 0.34 0.40 0.54 0.55 0.50 0.48 0.47
0.25 0.28 0.29 0.31 0.41 0.34 0.28 0.23 0.15 0.10 0.07 0.08 0.08 0.06 0.03 0.02 0.02 0.05 0.10 0.14 0.14 0.17 0.18 0.16 0.15 0.11 0.11 0.16 0.18 0.08 0.16 0.28 0.37 0.44 0.54 0.60 0.62 0.59 0.55 0.52 0.58 0.62 0.64 0.59
0.09 0.11 0.15 0.19 0.22 0.20 0.12 0.12 0.13 0.17 0.14 0.09 0.06 0.05 0.05 0.04 0.04 0.06 0.13 0.22 0.20 0.25 0.18 0.16 0.17 0.19 0.22 0.31 0.25 0.23 0.31 0.50 0.56 0.62 0.65 0.67 0.67 0.62 0.62 0.63 0.66 0.65 0.66 0.59
0.13 0.06 0.04 0.03 0.03 0.06 0.10 0.12 0.15 0.19 0.20 0.15 0.11 0.08 0.07 0.07 0.08 0.13 0.15 0.14 0.12 0.13 0.11 0.11 0.16 0.24 0.31 0.31 0.25 0.32 0.39 0.53 0.54 0.55 0.58 0.62 0.63 0.62 0.61 0.57 0.58 0.58 0.55 0.50
0.21 0.09 0.03 0.01 0.00 0.00 0.01 0.01 0.01 0.03 0.06 0.08 0.08 0.09 0.10 0.09 0.07 0.06 0.05 0.07 0.08 0.08 0.06 0.10 0.18 0.25 0.33 0.35 0.42 0.53 0.56 0.58 0.57 0.54 0.54 0.57 0.56 0.55 0.56 0.52 0.49 0.44 0.38 0.33
0.12 0.06 0.04 0.02 0.02 0.03 0.04 0.03 0.03 0.03 0.03 0.02 0.01 0.02 0.02 0.01 0.01 0.02 0.03 0.05 0.06 0.04 0.04 0.07 0.10 0.16 0.22 0.29 0.37 0.42 0.46 0.47 0.47 0.45 0.44 0.44 0.41 0.38 0.36 0.35 0.31 0.27 0.26 0.20
0.09 0.08 0.06 0.05 0.04 0.03 0.04 0.06 0.06 0.10 0.07 0.04 0.04 0.05 0.03 0.01 0.01 0.01 0.02 0.05 0.05 0.07 0.09 0.12 0.14 0.20 0.22 0.23 0.27 0.29 0.30 0.32 0.36 0.37 0.32 0.30 0.26 0.24 0.20 0.18 0.18 0.17 0.17 0.16
0.01 0.01 0.01 0.01 0.01 0.01 0.00 0.01 0.01 0.01 0.01 0.01 0.02 0.03 0.02 0.02 0.02 0.03 0.04 0.05 0.06 0.09 0.16 0.22 0.27 0.31 0.26 0.22 0.21 0.18 0.16 0.14 0.16 0.16 0.17 0.16 0.15 0.14 0.12 0.11 0.10 0.09 0.10 0.13

GFSNGP_prec_precacc_165.txt.gz
Total_Precipitation_Accumulation
0.43 0.17 0.67 0.68 0.52 0.76 1.52 0.99 1.09 0.39 0.20 0.04 0.04 0.05 0.02 0.01 0.03 0.06 0.04 0.01 0.01 0.00 0.01 0.00 0.01 0.02 0.02 0.04 0.08 0.25 0.52 0.47 0.42 1.01 0.78 0.92 1.14 1.10 1.53 1.22 1.35 1.26 1.05 0.99
0.83 0.36 0.36 0.62 0.61 0.81 0.83 0.77 0.84 0.30 0.23 0.04 0.01 0.01 0.02 0.11 0.15 0.08 0.05 0.02 0.00 0.00 0.00 0.01 0.01 0.00 0.00 0.03 0.06 0.07 0.09 0.10 0.20 0.52 0.48 0.54 0.75 0.77 1.09 1.33 1.54 1.76 1.61 1.34
0.74 0.48 0.70 1.12 0.77 0.60 0.38 0.37 0.49 0.47 0.13 0.07 0.11 0.06 0.17 0.16 0.09 0.10 0.06 0.01 0.00 0.00 0.00 0.00 0.00 0.00 0.01 0.03 0.02 0.03 0.06 0.06 0.04 0.15 0.27 0.16 0.42 0.50 0.69 1.14 1.11 1.35 1.80 2.09
0.80 0.74 1.05 0.63 0.51 0.35 0.36 0.36 0.32 0.16 0.04 0.07 0.12 0.11 0.26 0.06 0.07 0.05 0.02 0.00 0.00 0.00 0.00 0.00 0.00 0.00 0.01 0.12 0.06 0.33 0.14 0.29 0.37 0.34 0.30 0.25 0.28 0.47 0.42 0.56 0.86 1.05 1.17 1.56
0.54 0.40 0.25 0.02 0.05 0.17 0.23 0.37 0.20 0.06 0.02 0.04 0.03 0.15 0.30 0.06 0.04 0.03 0.01 0.00 0.00 0.00 0.00 0.00 0.00 0.00 0.01 0.00 0.01 0.06 0.21 0.40 0.28 0.42 0.30 0.33 0.60 0.68 0.92 1.15 1.03 0.88 0.81 0.73
0.47 0.41 0.09 0.00 0.00 0.00 0.03 0.21 0.30 0.17 0.09 0.06 0.04 0.15 0.34 0.28 0.18 0.08 0.00 0.00 0.00 0.00 0.00 0.01 0.01 0.03 0.02 0.04 0.05 0.08 0.16 0.29 0.34 0.46 0.70 0.71 0.87 0.74 0.55 0.57 0.62 0.50 0.32 0.20
0.37 0.43 0.03 0.00 0.00 0.00 0.04 0.13 0.12 0.16 0.16 0.08 0.06 0.09 0.38 0.51 0.38 0.19 0.09 0.06 0.06 0.06 0.07 0.10 0.18 0.19 0.16 0.29 0.38 0.45 0.58 0.88 0.67 0.67 0.84 0.73 0.59 0.50 0.32 0.18 0.13 0.09 0.05 0.02
0.26 0.38 0.08 0.00 0.00 0.01 0.01 0.00 0.00 0.05 0.14 0.16 0.14 0.06 0.09 0.23 0.25 0.26 0.26 0.29 0.32 0.23 0.34 0.46 0.74 0.62 0.51 0.60 0.67 0.67 0.50 0.43 0.43 0.32 0.24 0.18 0.08 0.04 0.01 0.00 0.00 0.00 0.00 0.00
0.11 0.08 0.01 0.01 0.00 0.00 0.00 0.00 0.00 0.01 0.11 0.17 0.21 0.12 0.05 0.06 0.07 0.04 0.04 0.13 0.18 0.25 0.41 0.42 0.51 0.38 0.39 0.25 0.25 0.25 0.14 0.10 0.08 0.05 0.01 0.00 0.00 0.00 0.00 0.00 0.00 0.00 0.00 0.00
0.01 0.01 0.04 0.16 0.17 0.08 0.04 0.01 0.00 0.00 0.00 0.00 0.06 0.11 0.01 0.01 0.01 0.02 0.02 0.02 0.01 0.01 0.01 0.04 0.03 0.03 0.03 0.02 0.03 0.03 0.01 0.00 0.00 0.00 0.00 0.00 0.00 0.00 0.00 0.00 0.00 0.00 0.00 0.00
0.02 0.00 0.00 0.00 0.02 0.05 0.07 0.07 0.05 0.03 0.01 0.00 0.01 0.02 0.02 0.03 0.01 0.00 0.00 0.00 0.00 0.00 0.00 0.01 0.00 0.00 0.00 0.00 0.00 0.00 0.01 0.01 0.00 0.01 0.01 0.01 0.01 0.01 0.01 0.01 0.01 0.01 0.01 0.01
0.02 0.01 0.03 0.02 0.00 0.00 0.00 0.01 0.03 0.03 0.01 0.01 0.01 0.05 0.05 0.03 0.01 0.01 0.00 0.00 0.01 0.01 0.02 0.02 0.02 0.01 0.00 0.00 0.00 0.00 0.01 0.01 0.01 0.02 0.04 0.05 0.04 0.04 0.05 0.08 0.10 0.10 0.08 0.08
0.02 0.01 0.01 0.00 0.00 0.00 0.01 0.00 0.00 0.01 0.02 0.01 0.00 0.03 0.05 0.03 0.03 0.02 0.00 0.01 0.02 0.01 0.00 0.01 0.04 0.08 0.09 0.07 0.06 0.06 0.08 0.10 0.11 0.13 0.11 0.09 0.09 0.08 0.06 0.11 0.17 0.18 0.17 0.19
0.01 0.02 0.03 0.01 0.01 0.01 0.01 0.01 0.01 0.02 0.02 0.01 0.01 0.02 0.04 0.06 0.15 0.11 0.08 0.08 0.06 0.02 0.00 0.00 0.00 0.01 0.01 0.03 0.04 0.05 0.07 0.14 0.15 0.18 0.22 0.27 0.30 0.29 0.28 0.24 0.21 0.26 0.36 0.37
0.02 0.03 0.04 0.05 0.02 0.00 0.01 0.02 0.03 0.04 0.03 0.01 0.02 0.03 0.04 0.09 0.19 0.34 0.29 0.21 0.21 0.22 0.16 0.10 0.06 0.03 0.01 0.02 0.01 0.01 0.01 0.02 0.02 0.04 0.07 0.10 0.09 0.13 0.19 0.25 0.28 0.31 0.37 0.58
0.04 0.01 0.00 0.01 0.00 0.00 0.01 0.04 0.07 0.09 0.04 0.02 0.01 0.01 0.01 0.02 0.02 0.05 0.05 0.07 0.12 0.13 0.10 0.09 0.08 0.05 0.05 0.05 0.04 0.02 0.03 0.10 0.09 0.07 0.09 0.11 0.11 0.11 0.12 0.15 0.16 0.21 0.26 0.37
0.04 0.03 0.01 0.01 0.01 0.00 0.00 0.03 0.08 0.17 0.14 0.05 0.02 0.01 0.01 0.01 0.00 0.00 0.02 0.03 0.04 0.05 0.06 0.06 0.04 0.03 0.03 0.02 0.04 0.03 0.03 0.07 0.15 0.08 0.07 0.10 0.13 0.15 0.15 0.20 0.22 0.19 0.17 0.43
0.05 0.03 0.03 0.02 0.02 0.03 0.04 0.04 0.05 0.12 0.19 0.21 0.18 0.09 0.05 0.04 0.06 0.09 0.10 0.09 0.08 0.06 0.06 0.06 0.06 0.04 0.03 0.03 0.02 0.01 0.01 0.03 0.06 0.06 0.08 0.12 0.16 0.19 0.29 0.34 0.32 0.31 0.27 0.47
0.07 0.08 0.08 0.08 0.13 0.15 0.12 0.10 0.12 0.12 0.10 0.11 0.16 0.21 0.18 0.13 0.11 0.11 0.13 0.14 0.15 0.14 0.11 0.10 0.15 0.10 0.04 0.06 0.08 0.04 0.05 0.07 0.09 0.11 0.12 0.22 0.31 0.27 0.32 0.38 0.41 0.43 0.43 0.52
0.24 0.21 0.15 0.15 0.20 0.24 0.25 0.27 0.27 0.27 0.25 0.22 0.19 0.17 0.16 0.12 0.09 0.09 0.10 0.15 0.21 0.23 0.20 0.18 0.16 0.08 0.04 0.07 0.12 0.07 0.14 0.17 0.22 0.23 0.33 0.39 0.35 0.37 0.43 0.60 0.61 0.55 0.54 0.57
0.25 0.28 0.29 0.31 0.41 0.34 0.28 0.23 0.15 0.10 0.07 0.08 0.08 0.06 0.03 0.02 0.02 0.05 0.10 0.14 0.14 0.17 0.18 0.16 0.15 0.11 0.11 0.16 0.18 0.08 0.17 0.29 0.38 0.46 0.56 0.63 0.67 0.63 0.59 0.57 0.64 0.69 0.74 0.71
0.09 0.11 0.15 0.19 0.22 0.20 0.12 0.12 0.13 0.17 0.14 0.09 0.06 0.05 0.05 0.04 0.04 0.06 0.13 0.22 0.20 0.25 0.18 0.16 0.17 0.19 0.22 0.32 0.25 0.23 0.31 0.51 0.58 0.64 0.69 0.72 0.72 0.67 0.68 0.69 0.73 0.73 0.75 0.69
0.13 0.06 0.04 0.03 0.03 0.06 0.10 0.12 0.15 0.19 0.20 0.15 0.11 0.08 0.07 0.07 0.08 0.13 0.15 0.14 0.12 0.13 0.11 0.11 0.16 0.24 0.31 0.32 0.26 0.34 0.41 0.55 0.57 0.59 0.64 0.69 0.69 0.68 0.67 0.64 0.66 0.66 0.62 0.60
0.21 0.09 0.03 0.01 0.00 0.00 0.01 0.01 0.01 0.03 0.06 0.08 0.08 0.09 0.10 0.09 0.07 0.06 0.05 0.07 0.08 0.08 0.06 0.10 0.18 0.26 0.34 0.37 0.45 0.56 0.59 0.62 0.62 0.61 0.61 0.64 0.62 0.61 0.62 0.59 0.57 0.52 0.47 0.43
0.12 0.06 0.04 0.02 0.02 0.03 0.04 0.03 0.03 0.03 0.03 0.02 0.01 0.02 0.02 0.01 0.01 0.02 0.03 0.05 0.06 0.04 0.04 0.07 0.10 0.16 0.25 0.33 0.42 0.48 0.51 0.53 0.54 0.53 0.52 0.52 0.47 0.43 0.41 0.40 0.36 0.31 0.31 0.27
0.09 0.08 0.06 0.05 0.04 0.03 0.04 0.06 0.06 0.10 0.07 0.04 0.04 0.05 0.03 0.01 0.01 0.01 0.02 0.05 0.05 0.07 0.09 0.12 0.15 0.23 0.29 0.31 0.34 0.36 0.37 0.39 0.44 0.45 0.41 0.38 0.33 0.30 0.26 0.23 0.24 0.23 0.23 0.22
0.01 0.01 0.01 0.01 0.01 0.01 0.00 0.01 0.01 0.01 0.01 0.01 0.02 0.03 0.02 0.02 0.02 0.03 0.04 0.05 0.06 0.09 0.16 0.23 0.30 0.38 0.35 0.31 0.28 0.26 0.23 0.21 0.22 0.22 0.22 0.21 0.20 0.19 0.17 0.16 0.15 0.14 0.14 0.16